DateTimeUTC,F1_A11,F1_S11,BsB_S11,BsG_S11,BsR_S11,BbsB_S11,BbsG_S11,BbsR_S11,BaB_A11,BaG_A11,BaR_A11,Tu_S11,T_S11,Uu_S11,U_S11,P_S11,T1_A11
2021-08-26T13:00:00Z,00000200,20000000,,,,,,,-000.05,-000.14,-000.40,19.4,26.0,03.9,02.6,0671.5,30.9
2021-08-26T13:01:00Z,00000200,20000000,,,,,,,0000.06,0000.16,0000.47,19.4,26.1,03.9,02.6,0671.5,30.9
2021-08-26T13:02:00Z,00000200,20000000,,,,,,,-000.27,-000.38,-000.23,19.4,26.1,03.9,02.6,0671.5,30.9
2021-08-26T13:03:00Z,00000200,60000000,,,,,,,0001.03,0001.13,0000.79,19.4,26.1,03.9,02.6,0671.5,30.9
2021-08-26T13:04:00Z,00000200,40000000,0006.92,0005.67,0003.76,0000.66,0000.57,0000.22,0001.11,0001.10,0000.77,19.5,25.9,03.9,02.7,0672.4,30.9
2021-08-26T13:05:00Z,00000200,00000000,0006.98,0005.80,0003.74,0000.93,0001.01,0000.65,0001.35,0000.65,0000.88,19.6,25.9,03.7,02.6,0672.5,30.9
2021-08-26T13:06:00Z,00000200,00000000,0006.85,0005.92,0004.04,0000.78,0000.59,0000.72,0001.41,0002.02,0001.21,19.6,25.9,03.8,02.6,0672.5,30.9
2021-08-26T13:07:00Z,00000200,00000000,0006.28,0005.55,0003.79,0000.48,0000.62,0000.78,0001.36,0000.79,0000.86,19.6,25.9,03.8,02.6,0672.5,30.9
2021-08-26T13:08:00Z,00000200,00000000,0007.51,0005.81,0003.89,0001.49,0000.55,0000.63,0001.47,0001.45,0000.95,19.6,25.9,03.9,02.7,0672.5,30.9
2021-08-26T13:09:00Z,00000200,00000000,0007.27,0005.86,0003.73,0000.54,0000.77,0000.49,0000.87,0000.88,0000.98,19.6,25.9,03.9,02.7,0672.5,30.9
2021-08-26T13:10:00Z,00000200,00000000,0007.13,0005.54,0003.85,0000.26,0000.53,0000.36,0001.50,0001.29,0000.95,19.6,25.9,03.9,02.7,0672.5,30.9
2021-08-26T13:11:00Z,00000200,00000000,0007.17,0005.79,0003.66,0001.16,0000.74,0000.53,0001.50,0001.67,0001.05,19.6,25.9,03.9,02.7,0672.5,30.9
2021-08-26T13:12:00Z,00000200,00000000,0007.28,0005.95,0003.53,0000.56,0000.49,0000.17,0001.38,0001.29,0001.50,19.6,25.9,03.8,02.6,0672.5,30.9
2021-08-26T13:13:00Z,00000200,00000000,0006.74,0005.28,0003.77,0000.20,0000.63,0000.25,0001.36,0001.40,0000.86,19.6,25.9,03.9,02.7,0672.5,30.9
2021-08-26T13:14:00Z,00000200,00000000,0005.97,0005.62,0003.95,0000.99,0000.76,0000.43,0001.47,0001.22,0001.30,19.6,25.9,04.0,02.7,0672.5,30.9
2021-08-26T13:15:00Z,00000200,00000000,0007.14,0006.09,0004.05,0000.43,0000.55,0000.42,0000.96,0001.03,0000.69,19.6,25.9,03.9,02.7,0672.5,30.9
2021-08-26T13:16:00Z,00000200,00000000,0007.65,0005.64,0004.01,0000.70,0000.59,0000.57,0001.80,0001.19,0001.21,19.6,25.9,03.9,02.6,0672.5,30.9
2021-08-26T13:17:00Z,00000200,00000000,0007.10,0005.71,0003.95,0001.11,0000.58,0000.66,0000.72,0001.02,0000.57,19.6,25.9,03.9,02.7,0672.5,30.9
2021-08-26T13:18:00Z,00000200,00000000,0007.33,0005.73,0003.73,0000.76,0000.57,0000.57,0001.80,0001.41,0001.49,19.6,25.9,03.9,02.7,0672.5,30.9
2021-08-26T13:19:00Z,00000200,00000000,0007.35,0005.53,0003.55,0000.55,0000.94,0000.54,0001.14,0001.47,0000.63,19.6,25.9,03.9,02.7,0672.6,30.9
2021-08-26T13:20:00Z,00000200,00000000,0006.50,0005.66,0003.92,0001.29,0000.96,0000.39,0001.54,0001.26,0001.26,19.6,25.9,04.0,02.7,0672.6,30.9
2021-08-26T13:21:00Z,00000200,00000000,0006.75,0005.02,0003.92,0000.90,0000.46,0000.61,0001.18,0001.05,0001.15,19.6,25.9,03.9,02.7,0672.6,30.9
2021-08-26T13:22:00Z,00000200,00000000,0006.80,0005.96,0004.16,0001.07,0000.43,0000.64,0001.63,0001.67,0000.95,19.6,25.9,03.9,02.7,0672.6,30.9
2021-08-26T13:23:00Z,00000200,00000000,0008.24,0005.73,0003.62,0001.00,0000.92,0000.33,0000.96,0000.88,0001.24,19.6,25.9,04.0,02.7,0672.6,30.9
2021-08-26T13:24:00Z,00000200,00000000,0006.79,0005.43,0004.00,0000.76,0000.63,0000.42,0001.62,0001.25,0000.81,19.6,25.9,04.0,02.7,0672.6,30.9
2021-08-26T13:25:00Z,00000200,00000000,0007.13,0005.89,0004.07,0000.75,0000.70,0000.85,0001.55,0001.43,0001.11,19.6,25.9,03.9,02.7,0672.7,30.9
2021-08-26T13:26:00Z,00000200,00000000,0007.90,0005.75,0003.36,0000.62,0000.70,0000.46,0000.93,0001.10,0001.33,19.6,25.9,03.9,02.7,0672.6,30.9
2021-08-26T13:27:00Z,00000200,00000000,0006.67,0005.15,0003.76,0000.47,0000.30,0000.58,0001.41,0001.23,0000.61,19.6,25.9,03.9,02.7,0672.7,30.9
2021-08-26T13:28:00Z,00000200,00000000,0007.45,0005.37,0003.82,0000.86,0000.63,0000.49,0001.26,0001.58,0001.37,19.6,25.9,04.0,02.7,0672.7,30.9
2021-08-26T13:29:00Z,00000200,00000000,0007.50,0005.79,0004.10,0000.97,0000.70,0000.14,0001.43,0000.75,0000.89,19.6,25.9,03.9,02.7,0672.7,31.0
2021-08-26T13:30:00Z,00000200,00000000,0007.64,0005.71,0003.73,0000.33,0000.81,0000.73,0001.42,0001.58,0001.07,19.6,25.9,04.0,02.7,0672.7,30.9
2021-08-26T13:31:00Z,00000200,00000000,0007.59,0006.15,0003.70,0000.95,0000.96,0000.46,0001.56,0001.25,0000.99,19.6,25.9,04.0,02.7,0672.7,30.9
2021-08-26T13:32:00Z,00000200,00000000,0006.45,0005.47,0003.89,0000.69,0000.69,0000.50,0001.30,0001.30,0001.07,19.7,25.9,04.0,02.7,0672.7,30.9
2021-08-26T13:33:00Z,00000200,00000000,0007.24,0005.58,0003.64,0001.51,0000.67,0000.64,0001.21,0001.04,0001.01,19.6,25.9,04.0,02.7,0672.7,30.9
2021-08-26T13:34:00Z,00000200,00000000,0006.72,0005.73,0004.08,0000.62,0000.91,0000.47,0001.60,0001.42,0000.83,19.6,25.9,04.0,02.8,0672.6,30.9
2021-08-26T13:35:00Z,00000200,00000000,0006.64,0006.05,0003.41,0000.69,0000.74,0000.41,0001.17,0001.21,0001.33,19.6,25.9,03.9,02.7,0672.6,30.9
2021-08-26T13:36:00Z,00000200,00000000,0006.91,0005.20,0003.84,0001.03,0001.19,0000.39,0000.91,0001.23,0000.75,19.6,25.9,04.1,02.8,0672.7,30.9
2021-08-26T13:37:00Z,00000200,00000000,0007.39,0005.42,0003.85,0000.64,0000.78,0000.18,0001.68,0001.54,0001.28,19.6,25.9,04.0,02.7,0672.7,30.9
2021-08-26T13:38:00Z,00000200,00000000,0007.40,0005.87,0003.72,0000.81,0000.77,0000.10,0001.21,0001.09,0000.71,19.6,25.9,04.0,02.8,0672.7,30.9
2021-08-26T13:39:00Z,00000200,00000000,0007.19,0005.50,0003.51,0000.66,0000.54,0000.53,0001.42,0000.94,0000.83,19.7,25.9,03.9,02.7,0672.7,30.9
2021-08-26T13:40:00Z,00000200,00000000,0007.54,0005.50,0004.18,0000.46,0000.83,0000.46,0001.21,0001.42,0001.29,19.6,25.9,03.9,02.7,0672.7,30.9
2021-08-26T13:41:00Z,00000200,00000000,0007.09,0005.56,0003.48,0000.76,0000.93,0000.03,0000.94,0000.83,0000.48,19.7,25.9,03.9,02.7,0672.7,30.9
2021-08-26T13:42:00Z,00000200,00000000,0006.97,0005.54,0003.83,0000.91,0000.76,0000.81,0001.62,0001.49,0001.53,19.7,25.9,03.9,02.7,0672.7,30.9
2021-08-26T13:43:00Z,00000200,00000000,0007.44,0005.50,0003.70,0001.10,0000.81,0000.32,0001.39,0001.42,0000.81,19.7,25.9,04.0,02.7,0672.7,30.9
2021-08-26T13:44:00Z,00000200,00000000,0007.06,0005.50,0004.01,0000.39,0000.79,0000.58,0001.16,0001.13,0001.17,19.7,25.9,04.0,02.7,0672.7,30.9
2021-08-26T13:45:00Z,00000200,00000000,0006.98,0005.89,0004.01,0001.70,0000.76,0000.47,0001.66,0001.39,0001.10,19.7,25.9,04.1,02.8,0672.7,30.9
2021-08-26T13:46:00Z,00000200,00000000,0007.57,0005.70,0003.38,0000.67,0000.68,0000.65,0001.61,0001.40,0001.15,19.7,25.9,03.9,02.7,0672.7,30.9
2021-08-26T13:47:00Z,00000200,00000000,0007.43,0005.77,0003.80,0000.95,0000.74,0000.64,0000.74,0000.86,0000.99,19.7,25.9,04.1,02.8,0672.7,30.9
2021-08-26T13:48:00Z,00000200,00000000,0007.16,0005.63,0003.72,0001.23,0000.44,0000.38,0001.60,0001.55,0001.16,19.7,25.9,04.1,02.8,0672.7,30.9
2021-08-26T13:49:00Z,00000200,00000000,0007.27,0005.40,0003.73,0000.44,0000.53,0000.14,0001.49,0001.32,0000.93,19.7,25.9,04.2,02.8,0672.7,30.9
2021-08-26T13:50:00Z,00000200,00000000,0007.43,0005.33,0003.85,0001.08,0000.83,0000.48,0001.49,0001.55,0001.01,19.7,25.9,04.2,02.9,0672.7,30.9
2021-08-26T13:51:00Z,00000200,00000000,0006.59,0005.83,0003.66,0000.60,0000.46,0000.65,0001.54,0001.15,0001.65,19.7,25.9,04.2,02.9,0672.7,30.9
2021-08-26T13:52:00Z,00000200,00000000,0007.04,0005.51,0004.00,0000.53,0000.89,0000.72,0001.23,0001.56,0000.76,19.7,25.9,04.3,02.9,0672.7,30.9
2021-08-26T13:53:00Z,00000200,00000000,0007.00,0005.50,0003.83,0000.84,0000.35,0000.65,0001.25,0000.80,0001.25,19.7,25.9,04.3,02.9,0672.7,30.9
2021-08-26T13:54:00Z,00000200,00000000,0007.33,0005.60,0003.76,0000.94,0000.54,0000.63,0001.48,0001.66,0000.57,19.7,25.9,04.3,02.9,0672.7,30.9
2021-08-26T13:55:00Z,00000200,00000000,0007.37,0005.70,0003.64,0000.33,0000.48,0000.45,0001.41,0001.18,0001.00,19.7,25.9,04.4,03.0,0672.7,30.9
2021-08-26T13:56:00Z,00000200,00000000,0007.05,0005.35,0003.58,0000.80,0000.66,0000.42,0001.28,0001.68,0001.56,19.7,25.9,04.4,03.0,0672.7,30.9
2021-08-26T13:57:00Z,00000200,40000000,,,,,,,0000.32,0000.04,0000.20,19.7,26.0,04.4,03.0,0672.9,30.9
2021-08-26T13:58:00Z,00000200,60000000,,,,,,,0000.22,0000.03,-000.21,19.5,26.0,04.2,02.8,0671.8,30.9
2021-08-26T13:59:00Z,00000200,20000000,,,,,,,-000.28,-000.63,-000.07,19.5,26.1,04.2,02.8,0671.7,30.9
